GW1618 Weather Reports


time (UTC)temp
C
wind
direction
speed
KPH
gust
KPH
rain 1hr
cm
rain 24hr
cm
rain mn
cm
humidity
%
barometer
mb
20260904225636 19 327 4.8 6.4 0.00 0.00 0.00 52 1012.9
20260904225131 19 200 4.8 8.0 0.00 0.00 0.00 53 1012.9
20260904224631 18 209 3.2 8.0 0.00 0.00 0.00 51 1012.9
20260904224133 18 231 4.8 6.4 0.00 0.00 0.00 53 1012.9
20260904223922 18 243 4.8 9.7 0.00 0.00 0.00 56 1012.9
20260904223133 17 209 4.8 9.7 0.00 0.00 0.00 61 1012.9
20260904222629 17 205 3.2 6.4 0.00 0.00 0.00 67 1012.9
20260904222129 17 180 4.8 9.7 0.00 0.00 0.00 69 1012.9
20260904221929 16 194 4.8 9.7 0.00 0.00 0.00 69 1012.9
20260904221130 16 212 4.8 8.0 0.00 0.00 0.00 73 1012.9
20260904220634 16 211 6.4 9.7 0.00 0.00 0.00 73 1012.9
20260904220134 16 221 6.4 11.3 0.00 0.00 0.00 74 1012.9
20260904215618 16 197 6.4 12.9 0.00 0.00 0.00 73 1012.9
20260904215106 16 213 8.0 17.7 0.00 0.00 0.00 71 1012.9
20260904214911 17 175 9.7 17.7 0.00 0.00 0.00 67 1012.9
20260904214103 17 204 9.7 20.9 0.00 0.00 0.00 63 1012.8
20260904213603 18 134 6.4 20.9 0.00 0.00 0.00 60 1012.8
20260904213103 18 221 1.6 8.0 0.00 0.00 0.00 57 1012.8
20260904212602 18 341 1.6 3.2 0.00 0.00 0.00 55 1012.6
20260904212112 17 315 3.2 4.8 0.00 0.00 0.00 58 1012.6
20260904211605 17 327 4.8 6.4 0.00 0.00 0.00 60 1012.6
20260904211102 17 350 6.4 9.7 0.00 0.00 0.00 61 1012.5
20260904210605 17 9 9.7 12.9 0.00 0.00 0.00 63 1012.5
20260904205601 17 359 8.0 11.3 0.00 0.00 0.00 64 1012.6
20260904205102 17 17 9.7 14.5 0.00 0.00 0.00 64 1012.6
20260904204601 17 23 9.7 14.5 0.00 0.00 0.00 65 1012.6
20260904204101 17 21 9.7 17.7 0.00 0.00 0.00 65 1012.8
20260904203850 17 4 12.9 17.7 0.00 0.00 0.00 67 1012.8
20260904203103 16 359 12.9 17.7 0.00 0.00 0.00 68 1012.8
20260904202606 16 26 12.9 17.7 0.00 0.00 0.00 71 1012.7
20260904202058 16 14 14.5 19.3 0.00 0.00 0.00 71 1012.7
20260904201548 16 4 16.1 19.3 0.00 0.00 0.00 71 1012.7
20260904201037 16 9 16.1 19.3 0.00 0.00 0.00 71 1012.7
20260904200535 16 18 14.5 19.3 0.00 0.00 0.00 68 1012.7
20260904200030 16 4 14.5 19.3 0.00 0.00 0.00 71 1012.7
20260904195530 16 4 14.5 19.3 0.00 0.00 0.00 70 1012.4
20260904195325 16 359 11.3 19.3 0.00 0.00 0.00 70 1012.4
20260904194529 17 9 8.0 14.5 0.00 0.00 0.00 68 1012.4
20260904194029 16 20 6.4 9.7 0.00 0.00 0.00 70 1012.6
20260904193530 16 346 9.7 14.5 0.00 0.00 0.00 71 1012.6
20260904193029 16 4 8.0 14.5 0.00 0.00 0.00 70 1012.6
20260904192534 16 342 6.4 9.7 0.00 0.00 0.00 71 1012.8
20260904192020 16 359 4.8 8.0 0.00 0.00 0.00 71 1012.8
20260904191514 16 21 4.8 6.4 0.00 0.00 0.00 72 1012.8
20260904191015 16 359 4.8 8.0 0.00 0.00 0.00 73 1012.8
20260904190806 16 342 6.4 8.0 0.00 0.00 0.00 75 1012.8
20260904190018 15 359 6.4 9.7 0.00 0.00 0.00 76 1012.8
20260904185516 15 359 6.4 9.7 0.00 0.00 0.00 77 1012.9
20260904185014 15 354 6.4 11.3 0.00 0.00 0.00 77 1012.9
20260904184517 15 359 6.4 11.3 0.00 0.00 0.00 78 1012.9
20260904184011 15 359 6.4 9.7 0.00 0.00 0.00 78 1012.9
20260904183514 15 9 6.4 9.7 0.00 0.00 0.00 79 1012.9
20260904183010 15 350 8.0 12.9 0.00 0.00 0.00 80 1012.9
20260904182801 14 341 9.7 16.1 0.00 0.00 0.00 81 1012.9
20260904182010 14 32 11.3 17.7 0.00 0.00 0.00 83 1012.9
20260904181510 14 19 12.9 17.7 0.00 0.00 0.00 83 1012.9
20260904181009 14 13 11.3 19.3 0.00 0.00 0.00 84 1012.9
20260904180511 14 9 9.7 19.3 0.00 0.00 0.00 84 1012.9
20260904180008 14 4 9.7 16.1 0.00 0.00 0.00 84 1012.9
20260904175803 13 16 9.7 16.1 0.00 0.00 0.00 85 1012.9
20260904175008 13 359 8.0 12.9 0.00 0.00 0.00 85 1012.9
20260904174508 13 351 8.0 14.5 0.00 0.00 0.00 85 1012.9
20260904174010 13 9 9.7 17.7 0.00 0.00 0.00 86 1012.9
20260904173809 13 359 12.9 17.7 0.00 0.00 0.00 86 1012.9
20260904173011 13 17 12.9 17.7 0.00 0.00 0.00 86 1012.9
20260904172507 13 21 12.9 17.7 0.00 0.00 0.00 85 1012.8
20260904172006 13 14 12.9 19.3 0.00 0.00 0.00 86 1012.8
20260904171503 13 14 12.9 19.3 0.00 0.00 0.00 85 1012.8
20260904170958 13 359 9.7 17.7 0.00 0.00 0.00 86 1012.8
20260904170456 13 14 8.0 11.3 0.00 0.00 0.00 86 1012.8
20260904165957 13 18 8.0 11.3 0.00 0.00 0.00 86 1012.8
20260904165453 13 18 8.0 11.3 0.00 0.00 0.00 87 1012.8
20260904164955 13 4 8.0 11.3 0.00 0.00 0.00 87 1012.8
20260904164856 13 355 8.0 11.3 0.00 0.00 0.00 87 1012.8
20260904163446 13 9 6.4 9.7 0.00 0.00 0.00 87 1012.7
20260904162944 13 19 6.4 9.7 0.00 0.00 0.00 87 1012.7
20260904162742 13 17 4.8 8.0 0.00 0.00 0.00 87 1012.7
20260904161938 13 359 3.2 4.8 0.00 0.00 0.00 87 1012.7
20260904161435 13 9 3.2 4.8 0.00 0.00 0.00 87 1012.7
20260904160932 13 354 3.2 4.8 0.00 0.00 0.00 87 1012.6
20260904160431 13 298 3.2 4.8 0.00 0.00 0.00 88 1012.6
20260904155934 13 281 1.6 4.8 0.00 0.00 0.00 88 1012.6
20260904155415 13 243 1.6 6.4 0.00 0.00 0.00 88 1012.4
20260904155221 13 292 1.6 6.4 0.00 0.00 0.00 88 1012.4
20260904154415 13 342 0.0 1.6 0.00 0.00 0.00 89 1012.4
20260904153913 12 331 1.6 3.2 0.00 0.00 0.00 89 1012.3
20260904153405 12 331 3.2 6.4 0.00 0.00 0.00 89 1012.3
20260904152904 12 335 3.2 6.4 0.00 0.03 0.00 89 1012.3
20260904152656 12 346 3.2 4.8 0.00 0.03 0.00 89 1012.3
20260904151901 12 344 3.2 4.8 0.00 0.03 0.00 89 1012.3
20260904151401 12 9 1.6 3.2 0.00 0.03 0.00 89 1012.3
20260904150902 12 19 1.6 4.8 0.00 0.03 0.00 89 1012.0
20260904150700 12 26 3.2 6.4 0.00 0.03 0.00 89 1012.0
20260904145845 12 32 3.2 8.0 0.00 0.03 0.00 89 1012.0
20260904145347 12 359 3.2 8.0 0.00 0.03 0.00 89 1011.9
20260904144838 12 13 3.2 6.4 0.00 0.03 0.00 89 1011.9
20260904144334 12 331 3.2 4.8 0.00 0.03 0.00 89 1011.9
20260904143826 12 304 4.8 8.0 0.00 0.03 0.00 89 1011.8
20260904143321 12 321 4.8 11.3 0.00 0.03 0.00 89 1011.8
20260904142814 12 335 6.4 11.3 0.00 0.03 0.00 89 1011.8
20260904142306 12 333 4.8 8.0 0.00 0.03 0.00 89 1011.8
20260904141805 12 4 4.8 8.0 0.00 0.03 0.00 89 1011.8
20260904141305 12 342 4.8 8.0 0.00 0.03 0.00 89 1011.8
20260904140803 12 339 4.8 9.7 0.00 0.05 0.00 89 1011.4
20260904140310 12 359 4.8 9.7 0.00 0.05 0.00 89 1011.4
20260904135306 12 9 3.2 6.4 0.00 0.05 0.00 89 1011.1
20260904134826 12 17 3.2 6.4 0.00 0.05 0.00 89 1011.1
20260904133816 12 348 3.2 4.8 0.00 0.05 0.00 89 1011.1
20260904132749 12 344 1.6 6.4 0.00 0.05 0.00 89 1011.1
20260904132246 12 335 0.0 3.2 0.00 0.05 0.00 88 1010.9
20260904131731 12 335 1.6 3.2 0.00 0.05 0.00 88 1010.9
20260904131230 12 335 1.6 3.2 0.00 0.05 0.00 88 1010.9
20260904130732 12 334 1.6 3.2 0.00 0.05 0.00 88 1010.9
20260904130232 12 306 1.6 3.2 0.00 0.08 0.00 88 1010.9
20260904130023 12 254 1.6 4.8 0.00 0.08 0.00 88 1010.9
20260904125222 12 237 1.6 4.8 0.00 0.08 0.00 88 1011.0
20260904124725 12 244 1.6 4.8 0.00 0.08 0.00 88 1011.0
20260904124210 12 331 1.6 3.2 0.00 0.08 0.00 88 1011.0
20260904123658 12 331 1.6 3.2 0.00 0.08 0.00 88 1010.8
20260904123157 12 347 3.2 6.4 0.00 0.08 0.00 88 1010.8
20260904122658 12 351 3.2 6.4 0.00 0.08 0.00 88 1010.8
20260904122159 12 339 3.2 4.8 0.00 0.08 0.00 88 1010.8
20260904121641 12 345 3.2 4.8 0.00 0.08 0.00 88 1010.8
20260904121435 12 339 3.2 4.8 0.00 0.08 0.00 88 1010.8
20260904120631 12 332 1.6 3.2 0.00 0.08 0.00 88 1010.8
20260904120131 12 323 0.0 1.6 0.00 0.08 0.00 88 1010.8
20260904115631 12 323 1.6 3.2 0.00 0.10 0.00 88 1010.8
20260904115134 12 343 1.6 3.2 0.00 0.10 0.00 88 1010.8
20260904114631 12 354 1.6 3.2 0.00 0.10 0.00 88 1010.8
20260904114146 12 354 1.6 4.8 0.00 0.10 0.00 88 1010.7
20260904113633 12 359 1.6 3.2 0.00 0.13 0.00 88 1010.7
20260904113121 12 333 1.6 3.2 0.00 0.13 0.00 88 1010.7
20260904112917 12 319 1.6 3.2 0.00 0.13 0.00 88 1010.4
20260904112150 12 337 1.6 3.2 0.00 0.13 0.00 88 1010.4
20260904111358 12 334 1.6 4.8 0.00 0.13 0.00 88 1010.3
20260904110613 12 323 3.2 4.8 0.00 0.15 0.00 88 1010.3
20260904110108 12 336 1.6 4.8 0.00 0.15 0.00 88 1010.3
20260904105609 12 19 1.6 3.2 0.00 0.15 0.00 88 1010.3
20260904105043 12 19 1.6 3.2 0.00 0.15 0.00 88 1010.3
20260904104533 12 19 1.6 3.2 0.00 0.15 0.00 87 1010.3
20260904104325 12 19 1.6 3.2 0.00 0.15 0.00 87 1010.2
20260904103511 12 19 1.6 3.2 0.00 0.15 0.00 87 1010.2
20260904103045 12 319 1.6 3.2 0.00 0.15 0.00 87 1010.2
20260904102310 12 319 1.6 3.2 0.00 0.15 0.00 87 1010.2
20260904101515 12 319 1.6 3.2 0.00 0.15 0.00 87 1010.2
20260904101017 12 319 0.0 3.2 0.00 0.15 0.00 86 1010.0
20260904100502 12 319 0.0 1.6 0.00 0.15 0.00 86 1010.0
20260904100005 12 319 0.0 1.6 0.00 0.15 0.00 86 1010.0
20260904095509 12 319 0.0 0.0 0.00 0.15 0.00 85 1009.9
20260904095222 12 319 0.0 1.6 0.00 0.15 0.00 85 1009.9
20260904094444 12 319 0.0 1.6 0.00 0.15 0.00 85 1009.9
20260904093913 12 319 0.0 1.6 0.00 0.15 0.00 85 1010.0
20260904093420 12 319 0.0 1.6 0.00 0.15 0.00 85 1010.0
20260904092905 12 319 1.6 3.2 0.00 0.15 0.00 85 1010.0
20260904092646 12 319 1.6 3.2 0.00 0.15 0.00 85 1010.1
20260904091851 12 321 1.6 4.8 0.00 0.15 0.00 84 1010.1
20260904091352 12 314 3.2 4.8 0.00 0.15 0.00 84 1010.1
20260904091118 12 323 3.2 4.8 0.00 0.15 0.00 84 1010.1
20260904090339 12 303 3.2 8.0 0.00 0.15 0.00 83 1010.1
20260904085829 13 294 4.8 8.0 0.00 0.15 0.00 83 1010.1
20260904085330 13 285 3.2 6.4 0.00 0.15 0.00 82 1010.2
20260904084829 13 296 1.6 4.8 0.00 0.15 0.00 83 1010.2
20260904084333 13 323 1.6 3.2 0.00 0.15 0.00 83 1010.2
20260904084058 13 321 1.6 3.2 0.00 0.15 0.00 83 1010.2
20260904083330 13 331 3.2 4.8 0.00 0.15 0.00 84 1010.2
20260904083114 13 359 3.2 4.8 0.00 0.15 0.00 84 1010.2
20260904082331 13 333 3.2 4.8 0.00 0.15 0.00 84 1010.2
20260904081836 13 331 3.2 4.8 0.00 0.15 0.00 84 1010.2
20260904081333 13 351 3.2 4.8 0.00 0.15 0.00 84 1010.2
20260904080819 13 350 3.2 4.8 0.00 0.15 0.00 84 1010.2
20260904080323 13 19 3.2 4.8 0.00 0.15 0.00 84 1010.2
20260904075815 13 359 3.2 4.8 0.00 0.15 0.00 84 1010.2
20260904075311 13 18 3.2 6.4 0.00 0.15 0.00 84 1010.2
20260904074806 13 21 3.2 6.4 0.00 0.18 0.00 84 1010.2
20260904074305 13 4 3.2 4.8 0.00 0.18 0.00 84 1010.2
20260904073802 13 9 3.2 4.8 0.00 0.18 0.00 84 1010.0
20260904073302 13 359 3.2 6.4 0.00 0.18 0.00 84 1010.0
20260904072805 13 359 3.2 6.4 0.00 0.18 0.00 84 1010.0
20260904072313 13 355 3.2 6.4 0.00 0.18 0.00 84 1009.9
20260904071808 13 9 3.2 4.8 0.00 0.18 0.00 84 1009.9
20260904071258 13 16 3.2 4.8 0.00 0.18 0.00 84 1009.9
20260904070752 13 26 3.2 4.8 0.00 0.18 0.00 84 1009.8
20260904070245 13 18 1.6 4.8 0.00 0.18 0.00 83 1009.8
20260904070023 13 350 1.6 4.8 0.00 0.18 0.18 83 1009.8
20260904065233 13 250 1.6 3.2 0.00 0.18 0.18 83 1009.8
20260904065020 13 250 1.6 3.2 0.00 0.18 0.18 83 1009.8
20260904064231 13 9 0.0 1.6 0.00 0.18 0.18 83 1009.8
20260904063729 13 9 1.6 3.2 0.00 0.18 0.18 83 1009.8
20260904063235 13 9 1.6 4.8 0.00 0.18 0.18 83 1009.8
20260904062729 13 9 3.2 4.8 0.00 0.18 0.18 83 1009.8
20260904062230 13 9 3.2 4.8 0.00 0.18 0.18 83 1009.8
20260904061731 13 4 3.2 4.8 0.00 0.18 0.18 83 1009.8
20260904061525 13 23 1.6 4.8 0.00 0.18 0.18 82 1009.8
20260904060729 13 75 0.0 3.2 0.00 0.18 0.18 82 1009.8
20260904060512 13 152 0.0 1.6 0.00 0.18 0.18 81 1009.8
20260904055737 13 152 1.6 3.2 0.00 0.18 0.18 80 1009.8
20260904055230 13 152 3.2 6.4 0.00 0.18 0.18 80 1009.9
20260904054732 13 153 3.2 6.4 0.00 0.18 0.18 80 1009.9
20260904054233 13 171 1.6 4.8 0.00 0.18 0.18 81 1009.9
20260904053734 13 359 1.6 3.2 0.00 0.18 0.18 82 1009.8
20260904053224 13 359 1.6 3.2 0.00 0.18 0.18 82 1009.8
20260904052712 13 337 0.0 3.2 0.00 0.18 0.18 82 1009.8
20260904052205 13 282 0.0 3.2 0.00 0.18 0.18 82 1009.8
20260904051958 13 271 0.0 0.0 0.00 0.18 0.18 81 1009.8
20260904051451 13 271 0.0 1.6 0.00 0.18 0.18 81 1009.8
20260904051001 13 271 0.0 1.6 0.00 0.18 0.18 80 1009.8
20260904050204 13 271 0.0 1.6 0.00 0.18 0.18 80 1009.8
20260904045949 13 271 0.0 1.6 0.00 0.18 0.18 79 1009.8
20260904045153 13 271 0.0 1.6 0.00 0.18 0.18 79 1009.7
20260904044641 13 271 0.0 1.6 0.00 0.18 0.18 78 1009.7
20260904044136 13 271 1.6 4.8 0.00 0.18 0.18 78 1009.7
20260904043631 13 271 1.6 4.8 0.00 0.18 0.18 77 1009.7
20260904043428 13 217 3.2 6.4 0.00 0.18 0.18 76 1009.7
20260904042628 13 177 4.8 8.0 0.00 0.18 0.18 77 1009.7
20260904042127 13 159 4.8 8.0 0.00 0.18 0.18 77 1009.7
20260904041731 13 147 3.2 8.0 0.00 0.18 0.18 79 1009.7
20260904040622 13 248 1.6 4.8 0.00 0.18 0.18 77 1009.7
20260904040418 13 212 1.6 4.8 0.00 0.18 0.18 76 1009.7
20260904035607 14 238 1.6 4.8 0.00 0.18 0.18 75 1009.5
20260904035102 14 248 1.6 3.2 0.00 0.18 0.18 76 1009.5
20260904034601 14 252 1.6 3.2 0.00 0.18 0.18 75 1009.5
20260904034354 14 211 1.6 4.8 0.00 0.18 0.18 74 1009.3
20260904033602 14 186 1.6 4.8 0.00 0.18 0.18 73 1009.3
20260904033353 14 161 1.6 3.2 0.00 0.18 0.18 72 1009.3
20260904032554 14 267 1.6 4.8 0.00 0.18 0.18 71 1009.2
20260904032049 15 265 3.2 4.8 0.00 0.18 0.18 71 1009.2
20260904031846 15 218 3.2 6.4 0.00 0.18 0.18 69 1009.2
20260904031049 15 213 3.2 8.0 0.00 0.18 0.18 69 1009.3
20260904030547 15 150 4.8 8.0 0.00 0.18 0.18 68 1009.3
20260904030346 15 163 3.2 6.4 0.00 0.18 0.18 68 1009.3
20260904025840 15 178 3.2 6.4 0.00 0.18 0.18 68 1009.2
20260904025041 15 209 3.2 9.7 0.00 0.18 0.18 68 1009.2
20260904024621 15 179 3.2 9.7 0.00 0.18 0.18 68 1009.2
20260904023536 15 174 3.2 6.4 0.00 0.18 0.18 68 1009.2
20260904023340 15 246 3.2 6.4 0.00 0.18 0.18 68 1009.2
20260904022834 15 256 3.2 6.4 0.00 0.18 0.18 68 1009.2
20260904022018 15 185 4.8 8.0 0.00 0.18 0.18 67 1009.2
20260904021515 15 157 4.8 8.0 0.00 0.18 0.18 67 1009.2
20260904021311 15 154 6.4 11.3 0.00 0.18 0.18 68 1009.0
20260904020505 15 174 6.4 17.7 0.00 0.18 0.18 68 1009.0
20260904020003 15 230 6.4 17.7 0.00 0.18 0.18 68 1009.0
20260904015505 15 216 4.8 9.7 0.00 0.18 0.18 68 1008.9
20260904015001 15 197 4.8 8.0 0.00 0.18 0.18 69 1008.9
20260904014501 15 229 4.8 8.0 0.00 0.18 0.18 69 1008.9
20260904014304 15 238 4.8 8.0 0.00 0.18 0.18 69 1009.0
20260904013501 15 207 4.8 8.0 0.00 0.18 0.18 68 1009.0
20260904013300 15 209 6.4 22.5 0.00 0.18 0.18 68 1009.0
20260904012507 15 188 8.0 22.5 0.00 0.18 0.18 68 1008.9
20260904012000 15 139 9.7 20.9 0.00 0.18 0.18 68 1008.9
20260904011721 15 203 8.0 20.9 0.00 0.18 0.18 67 1008.9
20260904011504 15 203 8.0 20.9 0.00 0.18 0.18 67 1008.9
20260904011003 15 148 6.4 16.1 0.00 0.18 0.18 67 1008.7
20260904010504 15 173 6.4 16.1 0.00 0.18 0.18 67 1008.7
20260904010001 15 181 6.4 16.1 0.00 0.18 0.18 70 1008.7
20260904005449 15 214 9.7 19.3 0.00 0.18 0.18 70 1008.9
20260904004938 15 170 11.3 19.3 0.00 0.18 0.18 70 1008.9
20260904004434 15 159 9.7 20.9 0.00 0.18 0.18 71 1008.9
20260904003933 15 147 9.7 20.9 0.00 0.18 0.18 71 1009.2
20260904003820 15 163 11.3 24.1 0.00 0.18 0.18 70 1009.2
20260904002430 16 238 11.3 22.5 0.00 0.18 0.18 68 1009.1
20260904001929 16 174 8.0 22.5 0.00 0.18 0.18 68 1009.1
20260904001429 16 178 8.0 19.3 0.00 0.18 0.18 69 1009.1
20260904000929 15 150 8.0 19.3 0.00 0.18 0.18 70 1009.1
20260904000432 16 148 8.0 17.7 0.00 0.18 0.18 69 1009.1
20260904000022 16 199 8.0 16.1 0.00 0.18 0.18 70 1009.1
20260903234945 15 173 6.4 12.9 0.00 0.18 0.18 70 1009.2
20260903234435 15 208 8.0 17.7 0.00 0.18 0.18 69 1009.2
20260903233938 16 204 9.7 17.7 0.00 0.18 0.18 68 1009.2
20260903233752 16 173 9.7 17.7 0.00 0.18 0.18 68 1009.2
20260903232934 16 236 9.7 17.7 0.00 0.18 0.18 68 1009.2
20260903232433 15 205 12.9 24.1 0.00 0.18 0.18 69 1009.2
20260903231940 15 169 14.5 24.1 0.00 0.18 0.18 68 1009.2
20260903231523 16 258 11.3 24.1 0.00 0.18 0.18 68 1009.2
20260903230717 16 171 11.3 25.7 0.00 0.18 0.18 69 1009.2
20260903225913 16 269 11.3 25.7 0.00 0.18 0.18 69 1009.2